This is the latest recevied weather packets stored in our database for station/object KD4MBW. If no packets are shown the sender has not sent any weather packets the latest 10 day(s).
| Time | Temp. | Humidity | Pressure | Rain* | Wind** | Luminosity | Snow |
|---|---|---|---|---|---|---|---|
| 1787766163 | 32.22° C | 76% | 1016.2 hPa | 0 mm | - | 788 W/m² | - |
| 1787765858 | 31.67° C | 75% | 1016.3 hPa | 0 mm | - | 788 W/m² | - |
| 1787765554 | 32.22° C | 74% | 1016.4 hPa | 0 mm | - | 788 W/m² | - |
| 1787765254 | 31.67° C | 75% | 1016.7 hPa | 0 mm | - | 791 W/m² | - |
| 1787764948 | 32.22° C | 73% | 1016.5 hPa | 0 mm | - | 810 W/m² | - |
| 1787764644 | 32.22° C | 71% | 1016.7 hPa | 0 mm | - | 778 W/m² | - |
| 1787764343 | 32.22° C | 72% | 1016.6 hPa | 0 mm | - | 757 W/m² | - |
| 1787764040 | 31.67° C | 74% | 1016.5 hPa | 0 mm | - | 760 W/m² | - |
| 1787763735 | 32.22° C | 73% | 1016.8 hPa | 0 mm | - | 766 W/m² | - |
| 1787763430 | 31.67° C | 71% | 1017.1 hPa | 0 mm | - | 778 W/m² | - |
| 1787763129 | 31.67° C | 70% | 1016.9 hPa | 0 mm | - | 767 W/m² | - |
| 1787762824 | 31.67° C | 71% | 1017 hPa | 0 mm | - | 764 W/m² | - |
| 1787762519 | 31.67° C | 73% | 1016.9 hPa | 0 mm | - | 743 W/m² | - |
| 1787762216 | 31.67° C | 75% | 1017.2 hPa | 0 mm | - | 744 W/m² | - |
| 1787761911 | 31.67° C | 74% | 1017.2 hPa | 0 mm | - | 733 W/m² | - |
| 1787761606 | 31.11° C | 76% | 1017 hPa | 0 mm | - | 726 W/m² | - |
| 1787761301 | 31.67° C | 75% | 1016.9 hPa | 0 mm | - | 721 W/m² | - |
| 1787761000 | 31.67° C | 75% | 1016.9 hPa | 0 mm | - | 712 W/m² | - |
| 1787760698 | 31.11° C | 76% | 1017.1 hPa | 0 mm | - | 705 W/m² | - |
| 1787760393 | 31.11° C | 77% | 1017 hPa | 0 mm | - | 702 W/m² | - |
| 1787760087 | 31.67° C | 78% | 1017.3 hPa | 0 mm | - | 631 W/m² | - |
| 1787759785 | 31.67° C | 73% | 1017.3 hPa | 0 mm | - | 683 W/m² | - |
| 1787759481 | 31.11° C | 76% | 1017.1 hPa | 0 mm | - | 679 W/m² | - |
| 1787759176 | 31.11° C | 76% | 1017.2 hPa | 0 mm | - | 677 W/m² | - |
| 1787758875 | 31.11° C | 76% | 1017.2 hPa | 0 mm | - | 668 W/m² | - |
* Rain latest hour (hover to see other rain measurements)
** Current wind speed in m/s (hover to see current wind gust speed)